TimeCDT,TemperatureF,Dew PointF,Humidity,Sea Level PressureIn,VisibilityMPH,Wind Direction,Wind SpeedMPH,Gust SpeedMPH,PrecipitationIn,Events,Conditions,WindDirDegrees,DateUTC
12:15 AM,76.5,65.8,70,30.13,10.0,South,8.1,-,N/A,,Clear,190,2013-08-26 05:15:00
12:35 AM,76.1,65.8,70,30.14,10.0,South,8.1,-,N/A,,Clear,190,2013-08-26 05:35:00
12:55 AM,76.3,65.8,70,30.13,10.0,South,9.2,-,N/A,,Clear,190,2013-08-26 05:55:00
1:15 AM,75.7,65.3,70,30.13,10.0,South,8.1,-,N/A,,Clear,190,2013-08-26 06:15:00
1:35 AM,75.2,65.1,71,30.13,10.0,South,5.8,-,N/A,,Clear,190,2013-08-26 06:35:00
1:55 AM,74.8,64.8,71,30.12,10.0,SSW,5.8,-,N/A,,Clear,200,2013-08-26 06:55:00
2:15 AM,74.5,64.6,71,30.12,10.0,SSW,5.8,-,N/A,,Clear,200,2013-08-26 07:15:00
2:35 AM,73.9,64.6,72,30.13,10.0,SSW,5.8,-,N/A,,Clear,210,2013-08-26 07:35:00
2:55 AM,73.4,64.8,74,30.13,10.0,SSW,4.6,-,N/A,,Clear,210,2013-08-26 07:55:00
3:15 AM,73.4,65.1,75,30.13,10.0,SSW,4.6,-,N/A,,Clear,210,2013-08-26 08:15:00
3:35 AM,73.0,65.3,77,30.13,10.0,SSW,5.8,-,N/A,,Clear,210,2013-08-26 08:35:00
3:55 AM,72.9,65.7,78,30.13,10.0,SSW,5.8,-,N/A,,Clear,210,2013-08-26 08:55:00
4:15 AM,72.5,65.7,79,30.13,10.0,SSW,4.6,-,N/A,,Clear,210,2013-08-26 09:15:00
4:35 AM,72.5,66.2,81,30.12,10.0,SSW,5.8,-,N/A,,Clear,210,2013-08-26 09:35:00
4:55 AM,72.0,65.8,81,30.12,10.0,SSW,5.8,-,N/A,,Clear,210,2013-08-26 09:55:00
5:15 AM,71.8,66.2,83,30.12,10.0,SSW,4.6,-,N/A,,Clear,210,2013-08-26 10:15:00
5:35 AM,71.8,66.2,83,30.13,10.0,SSW,3.5,-,N/A,,Clear,200,2013-08-26 10:35:00
5:55 AM,71.6,66.2,83,30.13,10.0,SSW,5.8,-,N/A,,Clear,200,2013-08-26 10:55:00
6:15 AM,72.0,66.2,82,30.13,10.0,SW,5.8,-,N/A,,Clear,220,2013-08-26 11:15:00
6:35 AM,72.0,66.2,82,30.14,10.0,SW,6.9,-,N/A,,Clear,220,2013-08-26 11:35:00
6:55 AM,72.5,66.4,81,30.14,10.0,SW,6.9,-,N/A,,Clear,220,2013-08-26 11:55:00
7:15 AM,73.4,66.7,80,30.14,10.0,SSW,4.6,-,N/A,,Clear,200,2013-08-26 12:15:00
7:35 AM,74.3,67.1,78,30.15,10.0,SSW,4.6,-,N/A,,Clear,210,2013-08-26 12:35:00
7:55 AM,75.7,67.5,75,30.14,10.0,SSW,5.8,-,N/A,,Clear,210,2013-08-26 12:55:00
8:15 AM,77.0,68.0,74,30.14,10.0,SSW,5.8,-,N/A,,Clear,210,2013-08-26 13:15:00
8:35 AM,79.0,68.7,71,30.14,10.0,SW,5.8,-,N/A,,Clear,230,2013-08-26 13:35:00
8:55 AM,81.3,69.1,66,30.14,10.0,WSW,6.9,-,N/A,,Clear,240,2013-08-26 13:55:00
9:15 AM,82.6,69.3,64,30.14,10.0,SW,8.1,-,N/A,,Clear,230,2013-08-26 14:15:00
9:35 AM,83.1,68.9,62,30.13,10.0,SW,5.8,-,N/A,,Clear,230,2013-08-26 14:35:00
9:55 AM,84.6,69.3,60,30.13,10.0,SW,5.8,-,N/A,,Clear,230,2013-08-26 14:55:00
10:15 AM,85.5,69.1,58,30.13,10.0,WSW,9.2,-,N/A,,Clear,250,2013-08-26 15:15:00
10:35 AM,87.4,69.8,56,30.13,10.0,SW,9.2,-,N/A,,Clear,220,2013-08-26 15:35:00
10:55 AM,88.2,69.4,54,30.13,10.0,SW,5.8,-,N/A,,Clear,230,2013-08-26 15:55:00
11:15 AM,88.5,68.9,52,30.12,10.0,SW,9.2,-,N/A,,Clear,230,2013-08-26 16:15:00
11:35 AM,90.1,69.3,50,30.12,10.0,WSW,5.8,-,N/A,,Clear,240,2013-08-26 16:35:00
11:55 AM,90.7,69.1,49,30.11,10.0,SW,8.1,-,N/A,,Clear,220,2013-08-26 16:55:00
12:15 PM,91.6,68.4,46,30.11,10.0,SSW,8.1,-,N/A,,Clear,210,2013-08-26 17:15:00
12:35 PM,91.9,69.4,48,30.10,10.0,SW,4.6,-,N/A,,Clear,230,2013-08-26 17:35:00
12:55 PM,92.5,68.7,46,30.10,10.0,SW,8.1,-,N/A,,Clear,220,2013-08-26 17:55:00
1:15 PM,93.2,69.3,45,30.09,10.0,WSW,5.8,-,N/A,,Clear,250,2013-08-26 18:15:00
1:35 PM,93.7,68.4,43,30.08,10.0,SW,8.1,-,N/A,,Clear,230,2013-08-26 18:35:00
1:55 PM,94.3,67.8,42,30.08,10.0,SSW,6.9,-,N/A,,Clear,210,2013-08-26 18:55:00
2:15 PM,93.7,67.3,42,30.07,10.0,SW,6.9,-,N/A,,Clear,220,2013-08-26 19:15:00
2:35 PM,95.9,67.5,39,30.06,10.0,WSW,9.2,-,N/A,,Clear,240,2013-08-26 19:35:00
2:55 PM,94.6,66.4,39,30.05,10.0,WSW,9.2,-,N/A,,Clear,240,2013-08-26 19:55:00
3:15 PM,95.7,66.4,38,30.05,10.0,SW,8.1,-,N/A,,Clear,220,2013-08-26 20:15:00
3:35 PM,96.8,67.3,38,30.05,10.0,South,9.2,-,N/A,,Clear,190,2013-08-26 20:35:00
3:55 PM,96.1,66.4,38,30.04,10.0,SW,9.2,-,N/A,,Clear,230,2013-08-26 20:55:00
4:15 PM,95.9,66.0,37,30.04,10.0,SSW,9.2,-,N/A,,Clear,200,2013-08-26 21:15:00
4:35 PM,96.6,66.2,37,30.03,10.0,WSW,8.1,-,N/A,,Clear,250,2013-08-26 21:35:00
4:55 PM,96.1,65.1,36,30.03,10.0,SSW,8.1,-,N/A,,Clear,200,2013-08-26 21:55:00
5:15 PM,95.4,65.1,37,30.03,10.0,SW,8.1,-,N/A,,Clear,220,2013-08-26 22:15:00
5:35 PM,95.2,65.3,37,30.03,10.0,SW,6.9,-,N/A,,Clear,220,2013-08-26 22:35:00
5:55 PM,95.0,65.5,38,30.02,10.0,SW,6.9,-,N/A,,Clear,220,2013-08-26 22:55:00
6:15 PM,94.1,65.3,39,30.01,10.0,SW,6.9,-,N/A,,Clear,220,2013-08-26 23:15:00
6:35 PM,93.0,65.8,41,30.01,10.0,SSW,6.9,-,N/A,,Clear,210,2013-08-26 23:35:00
6:55 PM,91.8,65.8,42,30.01,10.0,South,5.8,-,N/A,,Clear,190,2013-08-26 23:55:00
7:15 PM,90.3,65.7,44,30.01,10.0,SSW,4.6,-,N/A,,Clear,200,2013-08-27 00:15:00
7:35 PM,88.0,65.8,48,30.01,10.0,SSW,3.5,-,N/A,,Clear,200,2013-08-27 00:35:00
7:55 PM,85.8,65.8,51,30.00,10.0,SSW,4.6,-,N/A,,Clear,200,2013-08-27 00:55:00
8:15 PM,84.4,66.2,54,29.99,10.0,SSW,3.5,-,N/A,,Clear,200,2013-08-27 01:15:00
8:35 PM,83.7,66.2,56,29.99,10.0,SSW,5.8,-,N/A,,Clear,200,2013-08-27 01:35:00
8:55 PM,83.5,65.7,55,29.99,10.0,South,4.6,-,N/A,,Clear,190,2013-08-27 01:55:00
9:15 PM,82.2,66.2,58,30.00,10.0,SSW,3.5,-,N/A,,Clear,200,2013-08-27 02:15:00
9:35 PM,81.7,65.8,58,30.00,10.0,SSW,5.8,-,N/A,,Clear,210,2013-08-27 02:35:00
9:55 PM,81.3,65.7,59,30.00,10.0,SSW,6.9,-,N/A,,Clear,200,2013-08-27 02:55:00
10:15 PM,80.6,65.5,60,30.00,10.0,SSW,6.9,-,N/A,,Clear,210,2013-08-27 03:15:00
10:35 PM,80.2,65.5,61,30.01,10.0,SSW,5.8,-,N/A,,Clear,200,2013-08-27 03:35:00
10:55 PM,79.5,65.5,62,30.01,10.0,SSW,4.6,-,N/A,,Clear,200,2013-08-27 03:55:00
11:15 PM,78.6,65.5,64,30.01,10.0,SSW,5.8,-,N/A,,Clear,200,2013-08-27 04:15:00
11:35 PM,77.9,65.5,65,30.01,10.0,South,5.8,-,N/A,,Clear,190,2013-08-27 04:35:00
11:55 PM,77.2,65.5,67,30.01,10.0,South,5.8,-,N/A,,Clear,190,2013-08-27 04:55:00